Location: Harwich
(41.7160°N, 69.9939°W)
Time: 02:25:42
(UTC+02:00)

AO-27 - Pass Details

Date: 22 September 2024
Orbit: 783 x 796 km, 98.8° (Epoch: 04 October)

Event Time Altitude Azimuth Distance (km) Brightness Sun altitude
Exits shadow 03:38:40 47° 319° (NW) 1,050 8.5 -32.6°
Drops below altitude 10° 03:42:27 10° 341° (NNW) 2,363 10.7 -33.2°
Sets 03:44:48 0° 344° (NNW) 3,294 11.6 -33.6°
